Flag for Germany Weather past 2 weeks in Ludwigsburg, Baden-Württemberg, Germany

Now
43 °F

Clear.


Feels Like: 43 °F
Forecast: 50 / 69 °F
Wind: No wind

Location: Stuttgart-Echterdingen

Current Time: Apr 25, 2015 at 4:40:46 AM

Latest Report: Apr 25, 2015 at 4:20 AM


Visibility: 10 mi

Pressure: 29.86 "Hg

Humidity: 81%

Dew point: 37 °F

Location of LudwigsburgLocation

Historic Weather in Ludwigsburg — Graph

°F

Ludwigsburg temperature yesterday

Maximum temperature yesterday: 70 °F (at 3:50 PM)
Minimum temperature yesterday: 34 °F (at 6:20 AM)
Average temperature yesterday: 53 °F

Past Weeks' High & Low Weather Summary

 TemperatureHumidityPressure
High77 °F (Apr 15, 3:20 PM)93% (Apr 10, 6:20 AM)30.42 "Hg (Apr 10, 6:20 AM)
Low32 °F (Apr 23, 6:20 AM)15% (Apr 15, 5:50 PM)29.86 "Hg (Apr 17, 7:50 AM)
Average54 °F56%30.17 "Hg
* Reported Apr 10 3:20 AM — Apr 25 3:20 AM, Ludwigsburg, Weather by CustomWeather, © 2015

Note: Actual official high and low records may vary slightly from our data, if they occured in-between our weather recording intervals... More about our weather records

Advertising

Ludwigsburg weather history for previous 24 hours

 ConditionsComfort  
Time TempWeatherWind HumidityBarometerVisibility
3:20 AM
Sat, Apr 25
45 °FClear.No wind76%29.89 "Hg10 mi
2:50 AM45 °FClear.1 mph71%29.89 "Hg10 mi
2:20 AM46 °FClear.1 mph66%29.89 "Hg10 mi
1:50 AM46 °FClear.2 mph71%29.89 "Hg10 mi
1:20 AM48 °FClear.2 mph66%29.92 "Hg10 mi
12:50 AM48 °FClear.2 mph66%29.92 "Hg10 mi
12:20 AM48 °FPassing clouds.3 mph66%29.92 "HgN/A
11:50 PM
Fri, Apr 24
50 °FClear.3 mph62%29.92 "Hg10 mi
11:20 PM50 °FClear.8 mph67%29.92 "Hg10 mi
10:50 PM54 °FClear.No wind54%29.92 "Hg10 mi
10:20 PM55 °FPassing clouds.3 mph51%29.92 "HgN/A
9:50 PM57 °FClear.1 mph51%29.92 "Hg10 mi
9:20 PM61 °FSunny.3 mph42%29.92 "Hg10 mi
8:50 PM61 °FPassing clouds.3 mph39%29.92 "HgN/A
8:20 PM63 °FSunny.3 mph37%29.92 "Hg10 mi
7:50 PM64 °FSunny.6 mph37%29.92 "Hg10 mi
7:20 PM64 °FPassing clouds.6 mph37%29.92 "HgN/A
6:50 PM66 °FPassing clouds.6 mph32%29.92 "HgN/A
6:20 PM66 °FPassing clouds.7 mph30%29.92 "HgN/A
5:50 PM68 °FPassing clouds.6 mph28%29.92 "HgN/A
5:20 PM68 °FPassing clouds.6 mph26%29.92 "HgN/A
4:50 PM68 °FSunny.6 mph26%29.92 "Hg10 mi
4:20 PM68 °FSunny.5 mph26%29.92 "Hg10 mi
3:50 PM70 °FPassing clouds.5 mph27%29.95 "HgN/A
3:20 PM68 °FSunny.5 mph24%29.95 "Hg10 mi
2:50 PM68 °FSunny.5 mph23%29.95 "Hg10 mi
2:20 PM66 °FSunny.6 mph28%29.95 "Hg10 mi
1:50 PM64 °FSunny.3 mph24%29.98 "Hg10 mi
1:20 PM64 °FSunny.6 mph28%29.98 "Hg10 mi
12:50 PM63 °FSunny.3 mph32%29.98 "Hg10 mi
12:20 PM63 °FSunny.5 mph32%30.01 "Hg10 mi
11:50 AM61 °FSunny.3 mph39%30.01 "Hg10 mi
11:20 AM59 °FPassing clouds.3 mph45%30.01 "HgN/A
10:50 AM57 °FSunny.3 mph44%30.01 "Hg10 mi
10:20 AM55 °FPassing clouds.6 mph51%30.01 "HgN/A
9:50 AM54 °FPassing clouds.3 mph51%30.01 "HgN/A
9:20 AM50 °FSunny.1 mph62%30.01 "Hg10 mi
8:50 AM46 °FSunny.2 mph71%30.01 "Hg10 mi
8:20 AM41 °FSunny.2 mph81%30.01 "Hg10 mi
7:50 AM41 °FSunny.1 mph76%30.01 "Hg10 mi
7:20 AM37 °FSunny.1 mph81%30.01 "Hg10 mi
6:50 AM36 °FClear.1 mph87%30.01 "Hg10 mi
6:20 AM34 °FClear.2 mph87%30.01 "Hg10 mi
5:50 AM36 °FClear.2 mph87%30.01 "Hg10 mi
5:20 AM36 °FClear.3 mph81%30.01 "Hg10 mi
4:50 AM36 °FChilly.2 mph81%30.01 "HgN/A
4:20 AM36 °FClear.2 mph87%30.01 "Hg10 mi
Weather by CustomWeather, © 2015

See weather overviewHow to use our weather pages